Location: Unspecified
(0.0000°N, 0.0000°E)
Time: 11:32:06
(UTC+00:00)

A-11 Canister half - Pass Details

Date: 25 November 2019
Orbit: 1526 x 1683 km, 47.3° (Epoch: 07 December)

Event Time Altitude Azimuth Distance (km) Brightness Sun altitude
Rises 18:53:47 0° 319° (NW) 4,715 11.8 -15.6°
Reaches altitude 10° 18:56:51 10° 319° (NW) 3,718 11.2 -16.3°
Maximum altitude 19:06:14 87° 231° (SW) 1,531 9.0 -18.5°
Drops below altitude 10° 19:15:33 10° 142° (SE) 3,695 10.8 -20.6°
Sets 19:18:35 0° 141° (SE) 4,685 11.4 -21.3°
